Miscellaneous Hydrologic Data Report
Issued by NWS (Baltimore/Washington) Sterling, VA
1 of 53 available versions  First Miscellaneous Hydrologic Data Report Previous Miscellaneous Hydrologic Data Report  Print this page Close this Window


000
ASUS41 KLWX 111410
RWRLWX

REGIONAL WEATHER ROUNDUP
NATIONAL WEATHER SERVICE BALTIMORE MD/WASHINGTON DC
900 AM EST THU FEB 11 2016

Note: "FAIR" indicates few or no clouds below 12,000 feet
with no significant weather and/or obstructions to visibility.
 TC=TEMPERATURE CELSIUS

 * =Non NWS site. Station does not report precipitation (e.g. rain,
    snow, etc.), thunder, or fog.

DCZ001-MDZ009-015-VAZ040>042-051-053>054-111500-
WASHINGTON METRO

CITY           SKY/WX    TMP DP  RH WIND       PRES   REMARKS
WASHINGTON NAT FAIR      23   2  40 W18G30    30.14R WCI   9
DULLES         FAIR      21   2  43 NW22      30.11R WCI   5
ANDREWS AFB    MOSUNNY   23   2  40 W23       30.10R WCI   7
FT BELVOIR     FAIR      24   1  35 W13G25    30.13R WCI  13
QUANTICO       CLOUDY    26   2  35 NW8       30.16R WCI  18
COLLEGE PARK*  FAIR      25   3  39 W13G22    30.11R WCI  13
LEESBURG*      PTSUNNY   23   9  54 NW22G30   30.12R WCI   8
MANASSAS*      CLOUDY    21   5  49 W7G16     30.13R
GAITHERSBURG*  PTSUNNY   19   3  49 W17       30.11R WCI   4

$$

MDZ006>007-011-014-111500-
BALTIMORE METRO

CITY           SKY/WX    TMP DP  RH WIND       PRES   REMARKS
BWI AIRPORT    MOSUNNY   22   3  44 W16G24    30.08R WCI   8
MD SCIENCE CTR   N/A     23   3  42 MISG      30.08F
MARTIN STATE   MOSUNNY   25   7  46 W15G21    30.10R WCI  12
ANNAPOLIS      SUNNY     23   5  46 W9G25     30.11R WCI  13
FORT MEADE*    SUNNY     23   5  46 W15G22    30.12R WCI  10

$$

MDZ012-015-019>023-111500-
MARYLAND EASTERN SHORE

CITY           SKY/WX    TMP DP  RH WIND       PRES   REMARKS
OCEAN CITY     SUNNY     26   6  42 NW21G31   30.07R WCI  12
SALISBURY      MOSUNNY   25   4  40 W20G31    30.08R WCI  11
BAY BRIDGE AP*   N/A     25   5  42 W16G26    30.10R WCI  12
CAMBRIDGE*     MOSUNNY   27   3  36 W15G22    30.10R WCI  15
EASTON*        MOSUNNY   25   5  42 NW21G30   30.12R WCI  10

$$

MDZ017>025-111500-
SOUTHERN MARYLAND

CITY           SKY/WX    TMP DP  RH WIND       PRES   REMARKS
PATUXENT RIVER MOSUNNY   25   1  35 W22G28    30.13R WCI  10
ST INIGOES     PTSUNNY   25   3  38 NW15G26   30.12R WCI  13
LEONARDTOWN*   MOSUNNY   25   1  36 W14G26    30.14R WCI  13

$$

MDZ003>005-111500-
NORTH CENTRAL MARYLAND

CITY           SKY/WX    TMP DP  RH WIND       PRES   REMARKS
FREDERICK*     PTSUNNY   19   9  63 W15       30.12  WCI   5
HAGERSTOWN APT CLOUDY    17   6  62 W15       30.05R WCI   2
WESTMINSTER*   CLOUDY    18   9  68 W16G26    30.02R WCI   3

$$

MDZ501>502-111500-
WESTERN MARYLAND

CITY           SKY/WX    TMP DP  RH WIND       PRES   REMARKS
OAKLAND*       FOG        3   1  92 W10G21    29.91R VSB 3/4 WCI -12
CUMBERLAND*    MOSUNNY   19   3  49 W13G30    30.14R WCI   7

$$

VAZ025>031-111500-
SHENANDOAH VALLEY

CITY           SKY/WX    TMP DP  RH WIND       PRES   REMARKS
WINCHESTER*    CLOUDY    21   1  42 W17G26    30.09R WCI   7
FRONT ROYAL*   CLOUDY    21   0  39 W12G17    30.09R WCI   9
LURAY*         FAIR      21   1  42 SW9       30.09R WCI  11
NEW MARKET*    FAIR      18  -1  42 W7G18     30.08R
STAUNTON*      FAIR      23   2  40 W10G18    30.10R WCI  12
WAYNESBORO*    FAIR      18  -2  41 W8G18     30.06R WCI   7

$$

WVZ021-048>050-054>055-111500-
EASTERN WEST VIRGINIA PANHANDLE

CITY           SKY/WX    TMP DP  RH WIND       PRES   REMARKS
MARTINSBURG    CLOUDY    18   3  52 W15G24    30.09R WCI   4
PETERSBURG*    PTSUNNY   17   0  47 W16G23    30.12R WCI   2

$$

VAZ036>039-050-111500-
CENTRAL FOOTHILLS

CITY           SKY/WX    TMP DP  RH WIND       PRES   REMARKS
CHARLOTTESVILL FAIR      22   0  38 VRB6      30.12R
CULPEPER*      FAIR      22   2  41 W10       30.14R WCI  11
ORANGE*        FAIR      25   1  36 SW12G17   30.14R WCI  14
GORDONSVILLE*  FAIR      23  -1  36 W6        30.13R
WARRENTON*     FAIR      23   7  49 W13       30.12R WCI  11

$$

VAZ055>057-111500-
NORTH AND CENTRAL PIEDMONT

CITY           SKY/WX    TMP DP  RH WIND       PRES   REMARKS
FREDERICKSBRG* FAIR      24   4  41 W14G20    30.14S WCI  12
STAFFORD*      FAIR      23   0  37 W12G17    30.18R WCI  12

$$

NCZ024-NYZ072-PAZ021-071-VAZ022-071-111500-
OTHER REGIONAL OBSERVATIONS

CITY           SKY/WX    TMP DP  RH WIND       PRES   REMARKS
NEW YORK CITY  SUNNY     23  -1  35 W14G29    29.91R WCI  11
PHILADELPHIA   MOSUNNY   23   5  46 W17G31    30.02R WCI   9
PITTSBURGH     MOSUNNY   12   4  70 W10       30.08R WCI  -1
ROANOKE        FAIR      20   2  45 NW17G24   30.15R WCI   5
RICHMOND       FAIR      24   3  40 W13       30.16R WCI  12
RALEIGH        SUNNY     26   7  44 VRB6      30.20R

$$

ANZ530>537-111500-
MARINE OBSERVATIONS

STATION/POSITION TIME  TEMP    WIND        PRES
                       AIR SEA DIR/SP/G
                 (UTC) (F)     (DEG/KT/KT) (MB)
THOMAS PT LIGHT  NOT AVBL
BALT KEY BRIDGE  1300   22     270/ 17/ 20 1017.9R
COVE POINT       1300   23     320/ 16/ 22 1019.7R
LEWISETTA        1300   24 38  290/ 10/ 15 1019.6R
SOLOMONS ISLAND  1300   24 40  300/  7/ 15   N/A
PINEY POINT      1300          290/ 13/ 17   N/A

$$


Close this window


The National Weather Service prepares its forecasts and other services in collaboration with agencies like the US Geological Survey, US Bureau of Reclamation, US Army Corps of Engineers, Natural Resource Conservation Service, National Park Service, ALERT Users Group, Bureau of Indian Affairs, and many state and local emergency managers across the country. For details, please click here.

National Weather Service
(Baltimore/Washington) Sterling Weather Forecast Office
43858 Weather Service Rd.
Sterling, VA 20166
(703) 996-2200
Page last modified: 11-Feb-2016 2:10 PM
Disclaimer
Credits
Glossary
Privacy Policy
About Us
Career Opportunities